Location: Nitra
(48.3167°N, 18.0833°E)
Time: 08:42:32
(UTC+02:00)

STARLINK-1547 - Pass Details

Date: 24 September 2020
Orbit: 378 x 381 km, 53.0° (Epoch: 24 October)

Event Time Altitude Azimuth Distance (km) Brightness Sun altitude
Exits shadow 05:02:39 23° 317° (NW) 879 4.4 -16.3°
Maximum altitude 05:04:03 35° 7° (N) 640 4.2 -16.1°
Drops below altitude 10° 05:06:59 10° 76° (ENE) 1,399 7.1 -15.6°
Sets 05:09:08 0° 86° (E) 2,251 8.4 -15.3°
